Location: B?dargowo
(53.3916°N, 14.4413°E)
Time: 00:47:31
(UTC+00:00)

Cosmos 1892 Rocket - Pass Details

Date: 05 February 2023
Orbit: 605 x 632 km, 82.5° (Epoch: 20 March)

Event Time Altitude Azimuth Distance (km) Brightness Sun altitude
Rises 17:39:54 0° 189° (S) 2,895 7.2 -16.2°
Reaches altitude 10° 17:42:08 10° 189° (S) 1,989 6.3 -16.5°
Maximum altitude 17:46:32 90° 187° (S) 626 3.5 -17.1°
Drops below altitude 10° 17:50:57 10° 11° (N) 1,987 6.0 -17.8°
Sets 17:53:11 0° 12° (NNE) 2,893 6.9 -18.1°
